User: anonymous   Login
Location: Beekmeers
(50.8953°N, 3.6968°E)
Time: 16:41:59
(UTC+00:00)
Language:

BREEZE-M DEB (TANK) - Orbit

View from above orbital plane
View from above orbital plane
View from above satellite
View from above satellite

Ground track
Ground track

The orbit data is extracted from the following two-line orbital elements,

1 37828U 11054C   24201.83052607  .00011680  00000-0  18546-2 0  9991
2 37828  49.4075  88.1506 5549475 116.4619 309.8571  4.74043414214993
Epoch (UTC): 19 July 2024 19:55:57
Eccentricity: 0.5549475
inclination: 49.4075°
perigee height: 284 km
apogee height: 16897 km
right ascension of ascending node: 88.1506°
argument of perigee: 116.4619°
revolutions per day: 4.74043414
mean anomaly at epoch: 309.8571°
orbit number at epoch: 21499

The dashed part of the orbit path shows where the satellite is in the earth's shadow,  

DLR